HLF8809 VHHH-RKSI

Flight info

Callsign HLF8809
Flight time 2h 43m
Altitude 39000
Route DALOL V631 ENVAR M750 ANLOT B1 APU DCT DRAKE Q11 WP900 L4 LIPLO Y741 ATOTI Y722 OLMEN OLMEN2E
Aircraft B77L/H-SDE1E2E3FGHIJ2J3J4J5M1RWXY/LB1D1

Departure

Time 2026-05-04 13:03
Airport Hong Kong International Airport (VHHH)

Arrival

Time 2026-05-04 15:46
Airport Incheon International Airport (RKSI)
Time Latitude Longitude Altitude Speed Heading
2026-05-04 12:15 22.30076 113.92142 40 ft 0 kts 342°
2026-05-04 12:49 22.30073 113.92143 39 ft 2 kts 342°
2026-05-04 12:49 22.30059 113.92148 40 ft 2 kts 341°
2026-05-04 12:50 22.30045 113.92153 40 ft 2 kts 342°
2026-05-04 12:50 22.30030 113.92158 41 ft 2 kts 342°
2026-05-04 12:50 22.30016 113.92163 41 ft 2 kts 341°
2026-05-04 12:50 22.30007 113.92166 41 ft 2 kts 339°
2026-05-04 12:51 22.29996 113.92175 41 ft 2 kts 303°
2026-05-04 12:51 22.29990 113.92190 42 ft 2 kts 274°
2026-05-04 12:51 22.29991 113.92202 42 ft 0 kts 251°
2026-05-04 12:51 22.29992 113.92207 42 ft 0 kts 250°
2026-05-04 12:54 22.29990 113.92199 42 ft 1 kts 250°
2026-05-04 12:55 22.29982 113.92176 41 ft 4 kts 250°
2026-05-04 12:55 22.29971 113.92138 41 ft 6 kts 263°
2026-05-04 12:55 22.30009 113.92076 41 ft 14 kts 333°
2026-05-04 12:55 22.30118 113.92020 39 ft 17 kts 304°
2026-05-04 12:56 22.30101 113.91869 36 ft 24 kts 250°
2026-05-04 12:56 22.30037 113.91669 35 ft 32 kts 249°
2026-05-04 12:56 22.29956 113.91415 34 ft 38 kts 251°
2026-05-04 12:56 22.29884 113.91187 33 ft 28 kts 251°
2026-05-04 12:57 22.29819 113.90986 31 ft 27 kts 251°
2026-05-04 12:57 22.29759 113.90798 30 ft 26 kts 251°
2026-05-04 12:57 22.29700 113.90614 31 ft 24 kts 251°
2026-05-04 12:57 22.29646 113.90449 32 ft 22 kts 250°
2026-05-04 12:58 22.29597 113.90299 34 ft 19 kts 250°
2026-05-04 12:58 22.29550 113.90157 33 ft 21 kts 251°
2026-05-04 12:58 22.29502 113.90009 31 ft 17 kts 251°
2026-05-04 12:58 22.29500 113.89881 29 ft 16 kts 301°
2026-05-04 12:59 22.29582 113.89824 30 ft 14 kts 340°
2026-05-04 12:59 22.29633 113.89840 31 ft 9 kts 58°
2026-05-04 12:59 22.29654 113.89899 32 ft 7 kts 71°
2026-05-04 12:59 22.29656 113.89905 32 ft 0 kts 71°
2026-05-04 13:02 22.29662 113.89923 33 ft 18 kts 71°
2026-05-04 13:02 22.29826 113.90443 36 ft 125 kts 71°
2026-05-04 13:02 22.30204 113.91644 198 ft 205 kts 71°
2026-05-04 13:03 22.30676 113.93092 1666 ft 210 kts 71°
2026-05-04 13:03 22.31112 113.94430 3078 ft 197 kts 72°
2026-05-04 13:03 22.31584 113.95899 3774 ft 218 kts 72°
2026-05-04 13:03 22.32103 113.97513 4499 ft 239 kts 71°
2026-05-04 13:04 22.32663 113.99254 5242 ft 259 kts 71°
2026-05-04 13:04 22.33277 114.01161 6002 ft 279 kts 70°
2026-05-04 13:04 22.33831 114.03188 7019 ft 288 kts 80°
2026-05-04 13:04 22.33761 114.05328 7913 ft 296 kts 109°
2026-05-04 13:05 22.32747 114.07224 8838 ft 298 kts 138°
2026-05-04 13:05 22.31055 114.08466 9791 ft 296 kts 163°
2026-05-04 13:05 22.29073 114.08955 10678 ft 297 kts 182°
2026-05-04 13:05 22.26974 114.08872 11332 ft 312 kts 188°
2026-05-04 13:06 22.24757 114.08746 12059 ft 329 kts 185°
2026-05-04 13:06 22.22418 114.08882 12793 ft 348 kts 177°
2026-05-04 13:06 22.19994 114.09428 13492 ft 368 kts 168°
2026-05-04 13:06 22.17528 114.10455 14179 ft 387 kts 158°
2026-05-04 13:07 22.15150 114.11991 14827 ft 408 kts 147°
2026-05-04 13:07 22.12991 114.14037 15441 ft 427 kts 136°
2026-05-04 13:07 22.11162 114.16613 16239 ft 439 kts 123°
2026-05-04 13:07 22.09784 114.19589 17127 ft 446 kts 114°
2026-05-04 13:08 22.08574 114.22659 18011 ft 450 kts 117°
2026-05-04 13:08 22.06989 114.25545 18783 ft 453 kts 128°
2026-05-04 13:08 22.04965 114.28122 19536 ft 456 kts 138°
2026-05-04 13:08 22.02536 114.30341 20333 ft 457 kts 146°
2026-05-04 13:09 21.99941 114.32392 21151 ft 461 kts 147°
2026-05-04 13:09 21.97351 114.34418 21935 ft 464 kts 147°
2026-05-04 13:09 21.94733 114.36468 22626 ft 470 kts 147°
2026-05-04 13:09 21.92073 114.38554 23355 ft 474 kts 148°
2026-05-04 13:10 21.89431 114.40711 24116 ft 480 kts 143°
2026-05-04 13:10 21.87056 114.43251 24836 ft 489 kts 134°
2026-05-04 13:10 21.85017 114.46220 25482 ft 500 kts 125°
2026-05-04 13:10 21.83391 114.49556 26067 ft 513 kts 115°
2026-05-04 13:11 21.82231 114.53225 26708 ft 522 kts 108°
2026-05-04 13:11 21.81304 114.56982 27511 ft 526 kts 107°
2026-05-04 13:11 21.80373 114.60790 28261 ft 529 kts 107°
2026-05-04 13:11 21.79427 114.64598 28989 ft 534 kts 108°
2026-05-04 13:12 21.78447 114.68498 29678 ft 539 kts 108°
2026-05-04 13:12 21.77465 114.72366 30327 ft 544 kts 108°
2026-05-04 13:12 21.76466 114.76279 31091 ft 546 kts 108°
2026-05-04 13:12 21.75457 114.80213 31904 ft 545 kts 108°
2026-05-04 13:13 21.74651 114.84169 32740 ft 546 kts 100°
2026-05-04 13:13 21.74353 114.88210 33639 ft 546 kts 92°
2026-05-04 13:13 21.74329 114.92263 34556 ft 544 kts 91°
2026-05-04 13:13 21.74335 114.96345 35545 ft 539 kts 90°
2026-05-04 13:14 21.74340 115.00330 36404 ft 537 kts 90°
2026-05-04 13:14 21.74343 115.04351 37156 ft 535 kts 90°
2026-05-04 13:14 21.74344 115.08325 37793 ft 534 kts 90°
2026-05-04 13:14 21.74343 115.12320 38284 ft 535 kts 90°
2026-05-04 13:15 21.74341 115.16306 38730 ft 537 kts 90°
2026-05-04 13:15 21.74337 115.20301 39068 ft 538 kts 90°
2026-05-04 13:15 21.74332 115.24297 39047 ft 535 kts 90°
2026-05-04 13:16 21.74318 115.32255 39047 ft 534 kts 90°
2026-05-04 13:16 21.74299 115.40212 39052 ft 532 kts 90°
2026-05-04 13:17 21.74276 115.48176 39049 ft 535 kts 90°
2026-05-04 13:17 21.74249 115.56097 39046 ft 531 kts 90°
2026-05-04 13:18 21.74220 115.64071 39042 ft 533 kts 90°
2026-05-04 13:18 21.74189 115.72025 39041 ft 533 kts 90°
2026-05-04 13:19 21.74153 115.80016 39050 ft 535 kts 90°
2026-05-04 13:19 21.74115 115.87948 39041 ft 533 kts 91°
2026-05-04 13:20 21.74072 115.95929 39043 ft 533 kts 90°
2026-05-04 13:20 21.74025 116.03860 39045 ft 533 kts 90°
2026-05-04 13:21 21.73974 116.11832 39050 ft 534 kts 90°
2026-05-04 13:21 21.73920 116.19755 39053 ft 533 kts 91°
2026-05-04 13:22 21.73862 116.27731 39045 ft 532 kts 91°
2026-05-04 13:22 21.73800 116.35681 39045 ft 531 kts 91°
2026-05-04 13:23 21.73735 116.43613 39046 ft 532 kts 91°
2026-05-04 13:23 21.73666 116.51485 39052 ft 531 kts 90°
2026-05-04 13:24 21.73593 116.59433 39048 ft 531 kts 91°
2026-05-04 13:24 21.73515 116.67371 39029 ft 532 kts 91°
2026-05-04 13:25 21.74020 116.79193 39042 ft 530 kts 77°
2026-05-04 13:25 21.76342 116.86688 39051 ft 530 kts 67°
2026-05-04 13:26 21.79004 116.94006 39040 ft 529 kts 67°
2026-05-04 13:26 21.81671 117.01359 39039 ft 529 kts 67°
2026-05-04 13:27 21.84333 117.08717 39046 ft 531 kts 67°
2026-05-04 13:27 21.87007 117.16127 39050 ft 531 kts 67°
2026-05-04 13:28 21.89670 117.23522 39043 ft 531 kts 67°
2026-05-04 13:28 21.92331 117.30926 39044 ft 530 kts 67°
2026-05-04 13:29 21.94984 117.38322 39058 ft 532 kts 67°
2026-05-04 13:29 21.97637 117.45728 39047 ft 530 kts 67°
2026-05-04 13:30 22.00788 117.52885 39063 ft 531 kts 56°
2026-05-04 13:30 22.04654 117.59698 39053 ft 529 kts 56°
2026-05-04 13:31 22.08474 117.66409 39048 ft 529 kts 56°
2026-05-04 13:31 22.12314 117.73173 39027 ft 532 kts 56°
2026-05-04 13:32 22.16185 117.80004 39057 ft 530 kts 56°
2026-05-04 13:32 22.19987 117.86727 39033 ft 530 kts 56°
2026-05-04 13:33 22.23809 117.93494 39046 ft 530 kts 56°
2026-05-04 13:33 22.27668 118.00333 39040 ft 532 kts 57°
2026-05-04 13:34 22.31574 118.07064 39043 ft 531 kts 55°
2026-05-04 13:34 22.35500 118.13778 39031 ft 529 kts 55°
2026-05-04 13:35 22.41358 118.23850 39059 ft 529 kts 56°
2026-05-04 13:36 22.45195 118.30622 39051 ft 530 kts 56°
2026-05-04 13:36 22.49039 118.37421 39048 ft 530 kts 56°
2026-05-04 13:37 22.52858 118.44179 39057 ft 530 kts 56°
2026-05-04 13:37 22.56716 118.51015 39059 ft 530 kts 56°
2026-05-04 13:38 22.60573 118.57794 39083 ft 531 kts 56°
2026-05-04 13:38 22.64434 118.64571 39078 ft 530 kts 55°
2026-05-04 13:39 22.68292 118.71352 39059 ft 530 kts 56°
2026-05-04 13:39 22.72147 118.78137 39067 ft 530 kts 56°
2026-05-04 13:40 22.75993 118.84919 39062 ft 528 kts 56°
2026-05-04 13:40 22.79858 118.91740 39052 ft 532 kts 56°
2026-05-04 13:41 22.83705 118.98541 39061 ft 532 kts 56°
2026-05-04 13:41 22.87586 119.05409 39070 ft 533 kts 56°
2026-05-04 13:42 22.93366 119.15656 39059 ft 532 kts 56°
2026-05-04 13:42 22.97193 119.22452 39071 ft 532 kts 56°
2026-05-04 13:43 23.01071 119.29348 39079 ft 534 kts 56°
2026-05-04 13:43 23.04914 119.36192 39070 ft 534 kts 56°
2026-05-04 13:44 23.08780 119.43085 39058 ft 534 kts 56°
2026-05-04 13:44 23.12629 119.49957 39066 ft 534 kts 56°
2026-05-04 13:45 23.16466 119.56816 39068 ft 536 kts 56°
2026-05-04 13:45 23.20341 119.63751 39086 ft 533 kts 56°
2026-05-04 13:46 23.24171 119.70609 39063 ft 534 kts 56°
2026-05-04 13:46 23.28045 119.77557 39064 ft 536 kts 57°
2026-05-04 13:47 23.31884 119.84450 39054 ft 535 kts 57°
2026-05-04 13:47 23.35845 119.91324 39035 ft 536 kts 50°
2026-05-04 13:48 23.40862 119.97148 39051 ft 528 kts 39°
2026-05-04 13:48 23.46282 120.02719 38992 ft 543 kts 39°
2026-05-04 13:49 23.51847 120.08444 39018 ft 555 kts 39°
2026-05-04 13:49 23.57452 120.14224 39023 ft 556 kts 39°
2026-05-04 13:50 23.63082 120.20039 39030 ft 557 kts 39°
2026-05-04 13:50 23.68670 120.25819 39037 ft 556 kts 39°
2026-05-04 13:51 23.74312 120.31661 39034 ft 557 kts 39°
2026-05-04 13:51 23.79903 120.37458 39054 ft 559 kts 39°
2026-05-04 13:52 23.88338 120.46219 39030 ft 555 kts 39°
2026-05-04 13:53 23.94227 120.51556 39041 ft 552 kts 32°
2026-05-04 13:53 24.00402 120.56523 39043 ft 552 kts 31°
2026-05-04 13:54 24.09681 120.64000 39043 ft 552 kts 31°
2026-05-04 13:55 24.18855 120.71413 39013 ft 554 kts 32°
2026-05-04 13:55 24.28033 120.78848 39019 ft 555 kts 31°
2026-05-04 13:56 24.34247 120.83890 39031 ft 553 kts 31°
2026-05-04 13:57 24.43281 120.91233 39127 ft 554 kts 31°
2026-05-04 13:58 24.55660 121.01315 39189 ft 556 kts 31°
2026-05-04 13:58 24.64984 121.08928 39148 ft 556 kts 31°
2026-05-04 13:59 24.71149 121.13969 39115 ft 554 kts 31°
2026-05-04 14:00 24.80464 121.21596 39099 ft 555 kts 31°
2026-05-04 14:00 24.89737 121.29206 39104 ft 555 kts 31°
2026-05-04 14:01 24.95936 121.34300 39122 ft 556 kts 31°
2026-05-04 14:02 25.05218 121.41939 39131 ft 557 kts 30°
2026-05-04 14:02 25.11444 121.47074 39137 ft 557 kts 30°
2026-05-04 14:03 25.17530 121.52331 39133 ft 561 kts 38°
2026-05-04 14:03 25.22831 121.58695 39139 ft 568 kts 44°
2026-05-04 14:04 25.30626 121.68543 39123 ft 568 kts 44°
2026-05-04 14:04 25.35827 121.75124 39119 ft 570 kts 44°
2026-05-04 14:05 25.43659 121.85051 39131 ft 570 kts 44°
2026-05-04 14:06 25.48860 121.91653 39136 ft 571 kts 44°
2026-05-04 14:06 25.54086 121.98295 39129 ft 574 kts 44°
2026-05-04 14:07 25.59297 122.04925 39135 ft 571 kts 43°
2026-05-04 14:07 25.65206 122.10659 39142 ft 563 kts 29°
2026-05-04 14:08 25.71591 122.15633 39143 ft 559 kts 28°
2026-05-04 14:08 25.77967 122.20586 39146 ft 558 kts 28°
2026-05-04 14:09 25.87468 122.27984 39140 ft 560 kts 28°
2026-05-04 14:10 25.97035 122.35455 39138 ft 562 kts 28°
2026-05-04 14:10 26.03424 122.40456 39138 ft 558 kts 28°
2026-05-04 14:11 26.09730 122.45397 39133 ft 557 kts 28°
2026-05-04 14:11 26.19262 122.52880 39152 ft 563 kts 28°
2026-05-04 14:12 26.25626 122.57895 39144 ft 561 kts 28°
2026-05-04 14:13 26.35182 122.65437 39137 ft 562 kts 28°
2026-05-04 14:13 26.41603 122.70512 39117 ft 563 kts 28°
2026-05-04 14:14 26.47976 122.75558 39100 ft 564 kts 28°
2026-05-04 14:14 26.57606 122.83189 39094 ft 567 kts 28°
2026-05-04 14:15 26.70417 122.93340 39120 ft 567 kts 28°
2026-05-04 14:16 26.80023 123.00973 39129 ft 561 kts 27°
2026-05-04 14:17 26.86251 123.05954 39128 ft 538 kts 27°
2026-05-04 14:17 26.89251 123.08353 39122 ft 535 kts 27°
2026-05-04 14:18 27.00852 123.17625 39129 ft 540 kts 28°
2026-05-04 14:19 27.20192 123.33154 39129 ft 541 kts 27°
2026-05-04 14:19 27.26273 123.38049 39127 ft 543 kts 27°
2026-05-04 14:20 27.32440 123.43021 39131 ft 544 kts 27°
2026-05-04 14:20 27.38564 123.47965 39146 ft 545 kts 27°
2026-05-04 14:21 27.47753 123.55400 39147 ft 544 kts 27°
2026-05-04 14:21 27.53886 123.60370 39146 ft 543 kts 27°
2026-05-04 14:22 27.60047 123.65369 39164 ft 542 kts 27°
2026-05-04 14:22 27.66080 123.70479 39138 ft 547 kts 31°
2026-05-04 14:23 27.75130 123.78548 39119 ft 553 kts 31°
2026-05-04 14:24 27.81098 123.83868 39155 ft 547 kts 31°
2026-05-04 14:24 27.87118 123.89226 39121 ft 551 kts 30°
2026-05-04 14:25 27.93135 123.94586 39153 ft 554 kts 30°
2026-05-04 14:25 28.02199 124.02673 39141 ft 555 kts 30°
2026-05-04 14:26 28.08278 124.08105 39139 ft 556 kts 31°
2026-05-04 14:26 28.14336 124.13529 39136 ft 555 kts 31°
2026-05-04 14:27 28.20417 124.18980 39141 ft 554 kts 30°
2026-05-04 14:27 28.26457 124.24402 39138 ft 553 kts 30°
2026-05-04 14:28 28.32496 124.29828 39151 ft 556 kts 30°
2026-05-04 14:28 28.38501 124.35236 39135 ft 552 kts 30°
2026-05-04 14:29 28.50628 124.46175 39138 ft 557 kts 30°
2026-05-04 14:30 28.56668 124.51638 39156 ft 554 kts 30°
2026-05-04 14:31 28.65727 124.59843 39157 ft 557 kts 31°
2026-05-04 14:32 28.76956 124.69576 39122 ft 550 kts 20°
2026-05-04 14:32 28.83865 124.72953 39116 ft 541 kts
2026-05-04 14:33 28.90879 124.75754 39133 ft 529 kts
2026-05-04 14:33 28.97853 124.78526 39112 ft 532 kts
2026-05-04 14:34 29.06850 124.82113 39115 ft 531 kts
2026-05-04 14:34 29.16268 124.85877 39139 ft 531 kts
2026-05-04 14:35 29.23265 124.88676 39123 ft 535 kts
2026-05-04 14:35 29.30261 124.91483 39132 ft 531 kts
2026-05-04 14:36 29.37258 124.94291 39154 ft 536 kts
2026-05-04 14:36 29.44258 124.97109 39121 ft 533 kts
2026-05-04 14:37 29.51255 124.99926 39133 ft 535 kts
2026-05-04 14:37 29.58291 125.02766 39119 ft 531 kts
2026-05-04 14:38 29.65232 125.05568 39158 ft 535 kts
2026-05-04 14:38 29.72275 125.08418 39131 ft 534 kts
2026-05-04 14:39 29.79334 125.11276 39129 ft 540 kts
2026-05-04 14:39 29.86383 125.14139 39146 ft 535 kts
2026-05-04 14:40 29.96945 125.18433 39142 ft 537 kts
2026-05-04 14:40 30.03941 125.21287 39165 ft 533 kts
2026-05-04 14:41 30.10987 125.24165 39135 ft 540 kts
2026-05-04 14:42 30.25101 125.29954 39159 ft 538 kts
2026-05-04 14:42 30.32168 125.32861 39115 ft 535 kts
2026-05-04 14:43 30.39199 125.35750 39144 ft 541 kts
2026-05-04 14:43 30.46250 125.38660 39162 ft 539 kts
2026-05-04 14:44 30.53317 125.41576 39199 ft 540 kts
2026-05-04 14:44 30.60409 125.44508 39180 ft 540 kts
2026-05-04 14:45 30.67468 125.47431 39172 ft 543 kts
2026-05-04 14:45 30.84230 125.54393 39143 ft 542 kts
2026-05-04 14:46 30.91343 125.57352 39157 ft 544 kts
2026-05-04 14:46 30.98447 125.60317 39163 ft 539 kts
2026-05-04 14:47 31.05543 125.63277 39183 ft 545 kts
2026-05-04 14:47 31.12611 125.66239 39133 ft 535 kts
2026-05-04 14:48 31.19694 125.69202 39103 ft 540 kts
2026-05-04 14:48 31.26708 125.72147 39131 ft 539 kts
2026-05-04 14:49 31.33808 125.75129 39153 ft 540 kts
2026-05-04 14:49 31.40848 125.78095 39145 ft 536 kts
2026-05-04 14:50 31.47913 125.81070 39128 ft 542 kts 10°
2026-05-04 14:50 31.54965 125.84051 39163 ft 538 kts
2026-05-04 14:51 31.62018 125.87028 39145 ft 539 kts
2026-05-04 14:51 31.69048 125.89983 39142 ft 538 kts 10°
2026-05-04 14:52 31.76088 125.92945 39155 ft 537 kts 10°
2026-05-04 14:52 31.83129 125.95915 39178 ft 538 kts
2026-05-04 14:53 31.90137 125.98875 39162 ft 536 kts 10°
2026-05-04 14:53 31.97212 126.01868 39146 ft 538 kts 10°
2026-05-04 14:54 32.04206 126.04835 39154 ft 537 kts 10°
2026-05-04 14:54 32.11240 126.07816 39153 ft 536 kts 10°
2026-05-04 14:55 32.18262 126.10792 39155 ft 536 kts 10°
2026-05-04 14:55 32.25267 126.13763 39144 ft 538 kts 10°
2026-05-04 14:56 32.32309 126.16760 39169 ft 534 kts 10°
2026-05-04 14:56 32.39306 126.19740 39132 ft 535 kts 10°
2026-05-04 14:57 32.46271 126.22712 39164 ft 533 kts 10°
2026-05-04 14:57 32.53238 126.25690 39141 ft 530 kts 11°
2026-05-04 14:58 32.60169 126.28657 39145 ft 533 kts 11°
2026-05-04 14:58 32.67102 126.31637 39150 ft 528 kts 11°
2026-05-04 14:59 32.74069 126.34630 39156 ft 536 kts 11°
2026-05-04 15:00 32.84484 126.39122 39154 ft 531 kts 11°
2026-05-04 15:00 32.91442 126.42126 39157 ft 531 kts 11°
2026-05-04 15:01 33.01820 126.46617 39152 ft 530 kts 11°
2026-05-04 15:01 33.08743 126.49591 39167 ft 530 kts 11°
2026-05-04 15:02 33.15628 126.52556 39140 ft 523 kts 11°
2026-05-04 15:02 33.22559 126.55537 39174 ft 533 kts 11°
2026-05-04 15:03 33.29429 126.58507 39170 ft 525 kts 11°
2026-05-04 15:03 33.36327 126.61488 39190 ft 530 kts 11°
2026-05-04 15:04 33.43251 126.64497 39188 ft 526 kts 11°
2026-05-04 15:04 33.50094 126.67482 39154 ft 527 kts 12°
2026-05-04 15:05 33.57108 126.69893 39155 ft 514 kts 359°
2026-05-04 15:05 33.64119 126.70734 39154 ft 502 kts 356°
2026-05-04 15:06 33.71115 126.71465 39127 ft 506 kts 356°
2026-05-04 15:07 33.81640 126.72572 39165 ft 506 kts 355°
2026-05-04 15:07 33.88576 126.73306 39138 ft 503 kts 355°
2026-05-04 15:08 33.95573 126.74037 39129 ft 501 kts 356°
2026-05-04 15:08 34.02480 126.74759 39140 ft 501 kts 356°
2026-05-04 15:09 34.09472 126.75487 39145 ft 504 kts 356°
2026-05-04 15:09 34.16429 126.76218 39138 ft 503 kts 356°
2026-05-04 15:10 34.26805 126.77310 39139 ft 501 kts 356°
2026-05-04 15:11 34.37225 126.78416 39141 ft 502 kts 356°
2026-05-04 15:11 34.44164 126.79156 39136 ft 500 kts 356°
2026-05-04 15:12 34.51107 126.79896 39143 ft 499 kts 356°
2026-05-04 15:12 34.57991 126.80633 39137 ft 496 kts 356°
2026-05-04 15:13 34.64871 126.81367 39141 ft 497 kts 357°
2026-05-04 15:13 34.71721 126.82101 39143 ft 498 kts 357°
2026-05-04 15:14 34.78634 126.82842 39138 ft 497 kts 357°
2026-05-04 15:14 34.85531 126.83585 39140 ft 498 kts 357°
2026-05-04 15:15 34.92410 126.84325 39134 ft 497 kts 357°
2026-05-04 15:15 34.99267 126.85066 39149 ft 496 kts 357°
2026-05-04 15:16 35.09593 126.86182 39136 ft 495 kts 357°
2026-05-04 15:17 35.19844 126.87294 39135 ft 492 kts 357°
2026-05-04 15:17 35.30138 126.88412 39148 ft 494 kts 357°
2026-05-04 15:18 35.36958 126.89153 39133 ft 496 kts 357°
2026-05-04 15:19 35.47206 126.90274 39143 ft 492 kts 358°
2026-05-04 15:19 35.57413 126.91389 39147 ft 493 kts 358°
2026-05-04 15:20 35.64215 126.92135 39141 ft 491 kts 358°
2026-05-04 15:20 35.71027 126.92880 39142 ft 492 kts 358°
2026-05-04 15:21 35.77825 126.93629 39132 ft 490 kts 358°
2026-05-04 15:22 35.88045 126.94754 39142 ft 488 kts 358°
2026-05-04 15:22 35.98209 126.95875 39146 ft 489 kts 358°
2026-05-04 15:23 36.04998 126.96627 39133 ft 491 kts 358°
2026-05-04 15:23 36.11792 126.97381 39151 ft 490 kts 358°
2026-05-04 15:24 36.25155 126.98867 39120 ft 489 kts 358°
2026-05-04 15:25 36.31955 126.99623 38721 ft 495 kts 358°
2026-05-04 15:25 36.35358 127.00005 38337 ft 491 kts 358°
2026-05-04 15:26 36.42111 127.00266 37429 ft 478 kts 351°
2026-05-04 15:26 36.45402 127.00144 36957 ft 476 kts 352°
2026-05-04 15:26 36.51978 126.99895 35987 ft 474 kts 352°
2026-05-04 15:27 36.55272 126.99770 35610 ft 475 kts 352°
2026-05-04 15:27 36.61857 126.99528 34925 ft 472 kts 353°
2026-05-04 15:28 36.68334 126.99036 34095 ft 462 kts 345°
2026-05-04 15:28 36.71432 126.98059 33641 ft 458 kts 337°
2026-05-04 15:28 36.77038 126.94429 32637 ft 453 kts 320°
2026-05-04 15:29 36.79416 126.91895 32172 ft 453 kts 314°
2026-05-04 15:30 36.88359 126.80686 30118 ft 459 kts 314°
2026-05-04 15:30 36.94943 126.72379 28201 ft 444 kts 314°
2026-05-04 15:31 36.99137 126.67034 26922 ft 439 kts 312°
2026-05-04 15:31 37.00961 126.64008 26257 ft 435 kts 303°
2026-05-04 15:32 37.05294 126.54257 24295 ft 424 kts 309°
2026-05-04 15:32 37.09171 126.48759 22957 ft 419 kts 317°
2026-05-04 15:33 37.13383 126.43945 21448 ft 400 kts 321°
2026-05-04 15:34 37.19445 126.37470 19223 ft 372 kts 312°
2026-05-04 15:34 37.20914 126.34817 18472 ft 366 kts 298°
2026-05-04 15:34 37.22376 126.28881 17044 ft 356 kts 282°
2026-05-04 15:35 37.23180 126.22909 15819 ft 340 kts 284°
2026-05-04 15:35 37.24032 126.20186 15204 ft 331 kts 302°
2026-05-04 15:35 37.25369 126.17908 14594 ft 323 kts 314°
2026-05-04 15:36 37.28693 126.14288 13373 ft 313 kts 323°
2026-05-04 15:36 37.30440 126.12672 12766 ft 309 kts 324°
2026-05-04 15:36 37.32143 126.11137 12253 ft 302 kts 324°
2026-05-04 15:37 37.33839 126.09616 11809 ft 293 kts 324°
2026-05-04 15:37 37.35481 126.08147 11470 ft 291 kts 324°
2026-05-04 15:37 37.37123 126.06675 11105 ft 290 kts 324°
2026-05-04 15:37 37.38761 126.05208 10733 ft 289 kts 324°
2026-05-04 15:38 37.40406 126.03732 10360 ft 288 kts 324°
2026-05-04 15:38 37.42056 126.02325 9980 ft 287 kts 333°
2026-05-04 15:38 37.43940 126.01680 9596 ft 285 kts 358°
2026-05-04 15:38 37.45858 126.02113 9185 ft 279 kts 24°
2026-05-04 15:39 37.47416 126.03505 8808 ft 272 kts 45°
2026-05-04 15:39 37.48635 126.05327 8480 ft 271 kts 50°
2026-05-04 15:39 37.50870 126.09154 7740 ft 273 kts 53°
2026-05-04 15:40 37.51966 126.11079 7365 ft 274 kts 53°
2026-05-04 15:40 37.53085 126.13047 6986 ft 275 kts 53°
2026-05-04 15:40 37.54204 126.15015 6604 ft 276 kts 52°
2026-05-04 15:40 37.55308 126.16958 6229 ft 277 kts 53°
2026-05-04 15:41 37.56434 126.18941 5851 ft 277 kts 52°
2026-05-04 15:41 37.57559 126.20924 5464 ft 278 kts 53°
2026-05-04 15:41 37.58681 126.22903 5076 ft 277 kts 53°
2026-05-04 15:41 37.59798 126.24873 4688 ft 274 kts 53°
2026-05-04 15:42 37.60892 126.26821 4300 ft 270 kts 56°
2026-05-04 15:42 37.61529 126.28973 3899 ft 264 kts 85°
2026-05-04 15:42 37.61311 126.31234 3442 ft 259 kts 115°
2026-05-04 15:42 37.60384 126.33109 3088 ft 249 kts 137°
2026-05-04 15:43 37.59105 126.34497 2763 ft 239 kts 144°
2026-05-04 15:43 37.57791 126.35725 2436 ft 231 kts 147°
2026-05-04 15:43 37.56482 126.36881 2114 ft 225 kts 148°
2026-05-04 15:43 37.55209 126.37989 1799 ft 219 kts 147°
2026-05-04 15:44 37.53965 126.39084 1485 ft 211 kts 147°
2026-05-04 15:44 37.52835 126.40084 1205 ft 190 kts 147°
2026-05-04 15:44 37.51805 126.40995 941 ft 174 kts 146°
2026-05-04 15:44 37.50870 126.41827 702 ft 152 kts 146°
2026-05-04 15:45 37.50045 126.42557 512 ft 141 kts 146°
2026-05-04 15:45 37.49254 126.43260 291 ft 136 kts 146°
2026-05-04 15:45 37.48500 126.43930 101 ft 132 kts 145°
2026-05-04 15:45 37.47780 126.44564 36 ft 109 kts 145°
2026-05-04 15:46 37.47281 126.45007 36 ft 65 kts 144°
2026-05-04 15:46 37.47022 126.45235 35 ft 34 kts 146°
2026-05-04 15:46 37.46838 126.45395 35 ft 30 kts 143°
2026-05-04 15:46 37.46669 126.45540 35 ft 28 kts 154°
2026-05-04 15:47 37.46493 126.45596 36 ft 16 kts 173°
2026-05-04 15:47 37.46426 126.45575 35 ft 9 kts 221°
2026-05-04 15:47 37.46382 126.45508 35 ft 8 kts 234°
2026-05-04 15:47 37.46352 126.45454 35 ft 0 kts 234°
2026-05-04 15:49 37.46336 126.45426 35 ft 7 kts 234°
2026-05-04 15:50 37.46304 126.45370 35 ft 8 kts 233°
2026-05-04 15:50 37.46269 126.45308 35 ft 8 kts 234°
2026-05-04 15:50 37.46232 126.45242 35 ft 9 kts 235°
2026-05-04 15:50 37.46186 126.45181 36 ft 9 kts 203°
2026-05-04 15:51 37.46123 126.45197 35 ft 9 kts 148°
2026-05-04 15:51 37.46065 126.45245 35 ft 10 kts 144°
2026-05-04 15:51 37.46006 126.45295 35 ft 10 kts 145°
2026-05-04 15:51 37.45948 126.45351 35 ft 10 kts 143°
2026-05-04 15:52 37.45887 126.45406 35 ft 10 kts 144°
2026-05-04 15:52 37.45835 126.45470 35 ft 10 kts 103°
2026-05-04 15:52 37.45860 126.45554 35 ft 10 kts 56°
2026-05-04 15:52 37.45902 126.45634 35 ft 11 kts 55°
2026-05-04 15:53 37.45946 126.45709 36 ft 0 kts 52°
2026-05-04 15:53 37.45947 126.45710 35 ft 0 kts 52°
2026-05-04 15:53 37.45950 126.45715 35 ft 1 kts 52°
2026-05-04 15:53 37.45957 126.45727 35 ft 2 kts 53°
2026-05-04 15:54 37.45969 126.45747 35 ft 3 kts 53°
2026-05-04 15:54 37.45986 126.45776 35 ft 4 kts 53°
2026-05-04 15:54 37.46008 126.45814 35 ft 5 kts 54°
2026-05-04 15:54 37.46034 126.45859 35 ft 6 kts 54°
2026-05-04 15:55 37.46055 126.45895 35 ft 0 kts 55°
2026-05-04 15:56 37.46081 126.45944 35 ft 11 kts 55°
2026-05-04 15:57 37.46128 126.46030 35 ft 12 kts 54°
2026-05-04 15:57 37.46177 126.46117 36 ft 12 kts 55°
2026-05-04 15:57 37.46211 126.46177 35 ft 6 kts 48°
2026-05-04 15:57 37.46250 126.46204 35 ft 6 kts
2026-05-04 15:58 37.46299 126.46195 35 ft 7 kts 354°
2026-05-04 15:58 37.46345 126.46208 35 ft 6 kts 31°
2026-05-04 15:58 37.46400 126.46272 35 ft 14 kts 50°
2026-05-04 15:58 37.46460 126.46375 35 ft 14 kts 54°
2026-05-04 15:59 37.46518 126.46479 35 ft 14 kts 53°
2026-05-04 15:59 37.46578 126.46582 35 ft 12 kts 54°
2026-05-04 15:59 37.46589 126.46663 35 ft 6 kts 120°
2026-05-04 15:59 37.46561 126.46697 35 ft 6 kts 137°
2026-05-04 16:00 37.46545 126.46713 35 ft 0 kts 143°